Погода в Знаменке

Украина / Кировоградская область     48°42′46″N   32°41′25″E
темп.,
°C
ветер,
м/с
пор.,
м/с
влажн.,
%
обл.,
%
осадки,
мм/ч
давл.,
гПа
погр.,
м
6 мая, чт
чт600:00+10ю51365100 0.0 1012393
03:00+10ю51265100 0.0 1011456
06:00+9ю61364100 0.0 1010427
09:00+13ююз81254100 0.0 1011811
12:00+16ююз7948100 0.0 10101241
15:00+17зюз5754100 0.0 10101597
18:00+9ссз5993100 2.3 1013468
21:00+9зсз12915 2.8 1014117
7 мая, пт
пт700:00+7з22910 0.0 101511
03:00+6зсз22909 0.0 101621
06:00+6зюз1177100 0.0 101610
09:00+12ююз225868 0.0 1017385
12:00+16ю4544100 0.0 10161236
15:00+18ююв794099 0.0 10131691
18:00+17ю71053100 0.0 10111046
21:00+15ю61465100 0.0 1010623
8 мая, сб
сб800:00+13ююз81577100 0.1 1010677
03:00+12ююз61485100 0.3 1009661
06:00+11ююз61293100 0.8 1008622
09:00+11сз71092100 2.3 1010655
12:00+10сз7984100 5.8 1012751
15:00+13сз8953100 6.0 10131644
18:00+10сз7862100 0.0 10161334
21:00+8зсз2367100 0.0 101751
9 мая, вс
вс900:00+6сз410770 0.0 1019243
03:00+4сз410790 0.0 1020225
06:00+4сз410800 0.0 1022242
09:00+9сз68631 0.0 1023991
12:00+13ссз795069 0.0 10242046
15:00+12сз6852100 0.0 10241765
18:00+13ссз575061 0.0 10252107
21:00+8ссз33675 0.0 102727
10 мая, пн
пн1000:00+6с22685 0.0 102811
03:00+6с22675 0.0 102814
06:00+5ссв33765 0.0 102941
09:00+11ссв46533 0.0 1029915
12:00+14ссв56425 0.0 10281501
15:00+15ссв67415 0.0 10271685
18:00+15ссв68515 0.0 10261568
21:00+9ссв49700 0.0 1026146